Location: B
(0.0000°N, 0.0000°E)
Time: 22:15:34
(UTC+02:00)

Daily predictions for brighter satellites

Satellite Brightness Start Highest point End
(mag) Time Altitude Azimuth Time Altitude Azimuth Time Altitude Azimuth
Centaur AC-42 3.8 19:30:51 10° SW 19:36:06 66° SSE 20:12:37 10° ENE
Centaur AC-42 3.8 19:30:52 10° SW 19:36:06 66° SSE 20:12:37 10° ENE
Centaur AC-42 3.8 19:30:51 10° SW 19:36:06 66° SSE 20:12:38 10° ENE
Centaur AC-42 3.8 19:30:51 10° SW 19:36:07 66° SSE 20:12:37 10° ENE
ARIANE 5 R/B 4.0 19:46:16 10° WNW 19:51:16 69° NNE 20:44:37 10° E
ARIANE 5 R/B 4.0 19:46:16 10° WNW 19:51:16 69° NNE 20:44:38 10° E
ARIANE 5 DEB (SYLDA) 3.4 20:12:45 10° W 20:15:45 74° N 20:24:33 10° E
Sakura Rocket 4.1 20:17:03 10° W 20:20:15 27° SSW 20:23:26 10° SSE
Cosmos 1536 4.0 20:16:40 10° NNW 20:20:34 47° W 20:24:27 10° SSW
SL-16 R/B 2.9 20:16:51 10° SSW 20:22:26 61° WNW 20:27:59 10° N
Cosmos 2278 Rocket 4.1 20:22:07 10° ENE 20:23:32 11° ENE 20:24:56 10° E
Cosmos 2084 Rocket 3.8 20:22:22 10° NNW 20:26:44 76° WSW 20:31:22 10° SSE
Cosmos 1812 4.1 20:23:07 10° SSW 20:26:49 44° W 20:30:30 10° NNW
SJ-6B 3.6 20:23:50 10° SE 20:27:10 30° ENE 20:30:29 10° NNE
EUTELSAT W3B 2.2 20:25:19 10° W 20:27:26 63° N 20:29:37 10° E
Meteor 2-15 Rocket 4.4 20:24:30 10° S 20:30:35 75° E 20:36:37 10° N
Cosmos 1356 3.4 20:34:33 10° N 20:38:05 80° E 20:41:38 10° S
GPS 2-14 Rocket1 2.9 20:36:59 10° WSW 20:40:57 67° NNW 20:44:49 10° ENE
Cosmos 2173 Rocket 4.4 20:36:28 10° NNW 20:42:35 67° W 20:48:51 10° S
IDEFIX/ARIANE 42P 2.9 20:39:08 10° S 20:44:18 68° WSW 20:49:28 10° NNW
Cosmos 1455 Rocket 4.0 20:40:54 10° NNW 20:45:11 51° W 20:49:28 10° S
Hubble Space Telescope 2.8 20:43:22 10° NNW 20:46:12 18° NNE 20:49:01 10° ENE
Cosmos 1484 Rocket 2.6 20:47:07 10° SSE 20:50:50 84° ENE 20:54:32 10° N
Okean 2 4.1 20:47:41 10° SSE 20:51:27 32° E 20:55:12 10° NNE
Cosmos 1603 3.6 20:46:18 10° SSW 20:51:58 79° ESE 20:57:33 10° NNE
Cosmos 1452 Rocket 4.1 20:48:41 10° NNW 20:53:50 60° WSW 20:59:02 10° S
Spot 2 Rocket 3.6 20:53:12 10° SSE 20:58:07 52° ENE 21:03:00 10° N
ARIANE 44L R/B 3.7 20:54:39 10° WNW 20:58:57 28° N 21:00:41 14° NE
MSX 4.0 20:57:35 10° S 21:03:18 73° WSW 21:09:01 10° NNW
Meteor 1-23 Rocket 4.1 20:58:44 10° S 21:04:18 69° E 21:09:53 10° NNE
OAO 3 Rocket 3.2 20:59:55 10° SW 21:04:40 55° SE 21:07:56 19° ENE
ATLAS 2A CENTAUR R/B 4.4 20:49:58 10° SW 21:05:09 20° SSW 21:09:38 13° SSE
Lacrosse 4 Rocket3.821:08:48NE21:08:48NE21:01:04S
Cosmos 1500 3.7 21:05:02 10° NNE 21:08:39 38° E 21:09:23 34° ESE
Cosmos 1025 Rocket 4.2 21:05:54 10° SSW 21:10:06 45° W 21:14:18 10° NNW
Cosmos 1943 3.5 21:07:20 10° S 21:12:34 40° ESE 21:17:48 10° NE
Meteor 2-4 Rocket 3.7 21:08:04 10° S 21:13:48 90° E 21:19:39 10° N
Cosmos 1844 Rocket 2.9 21:12:05 10° NNW 21:17:40 69° WSW 21:22:44 13° S
Cosmos 1975 3.4 21:14:20 10° NNW 21:18:14 56° W 21:22:10 10° S
Delta 7925 Rocket 4.5 21:16:41 10° W 21:21:32 40° NNW 21:25:53 10° NE
Helios 1A 4.1 21:21:05 10° S 21:25:04 43° WSW 21:29:03 10° NNW
deb Chang Zheng 4 4.5 21:21:48 10° NNE 21:24:28 31° ENE 21:24:28 31° ENE
CZ-4B DEB 3.1 21:29:11 57° NNE 21:29:11 57° NNE 21:31:56 10° N
Cosmos 1743 4.1 21:26:07 10° NNE 21:28:05 26° NE 21:28:05 26° NE
OTV 4 3.2 21:33:18 10° N 21:33:55 13° N 21:33:55 13° N
Cosmos 1844 4.0 21:29:45 10° NNW 21:35:28 66° WSW 21:39:03 24° S
ARIANE 3 DEB 4.4 21:33:19 10° WSW 21:34:04 17° SW 21:34:04 17° SW
ARIANE 5 DEB (SYLDA 5A) 2.2 21:31:05 10° W 21:36:13 63° NW 21:36:13 63° NW
COSMOS 2455 4.4 21:31:43 10° SW 21:37:08 36° WNW 21:42:33 10° N
ATLAS 3B CENTAUR R/B 3.1 21:37:55 10° NNW 21:42:05 44° NE 21:44:02 37° ENE
Resurs 01 Rocket 3.0 21:41:47 15° SSW 21:44:57 35° WSW 21:49:00 10° NW
ATLAS 3B R/B 3.3 21:38:06 10° SSW 21:45:33 66° WNW 21:53:10 10° NNE
Resurs 1-3 4.3 21:44:57 34° SSW 21:46:28 50° WSW 21:50:43 10° NNW
deb Ariane 4.1 21:42:00 10° W 21:46:18 30° SW 21:46:18 30° SW
Tiangong 1 4.2 21:52:14 10° WSW 21:52:32 11° WSW 21:52:32 11° WSW
ASC 2 Rocket 4.0 21:45:08 10° WNW 21:53:36 68° NNE 21:54:32 60° ENE
ALOS 3.7 22:03:48 30° N 22:03:48 30° N 22:06:08 10° N
Tsikada Rocket 4.0 22:02:08 52° S 22:03:53 87° W 22:10:17 10° N
Cosmos 2278 Rocket 2.9 22:01:54 10° NNW 22:07:20 48° WSW 22:08:27 42° SW
Ariane H10+ 4.4 22:10:03 10° WSW 22:10:47 13° WSW 22:10:47 13° WSW
BREEZE-M R/B 4.2 22:08:17 10° NNW 22:13:24 79° NE 22:13:33 79° ENE
BLOCK DM-SL R/B 4.3 22:19:06 10° W 22:23:42 90° SSW 23:07:25 10° E
BLOCK DM-SL R/B 4.3 22:19:05 10° W 22:23:42 90° SSW 23:07:25 10° E
BLOCK DM-SL R/B 4.3 22:19:06 10° W 22:23:43 90° S 23:07:25 10° E
BLOCK DM-SL R/B 4.3 22:19:06 10° W 22:23:43 90° SSE 23:07:25 10° E
Hubble Space Telescope 3.5 22:23:18 10° WNW 22:24:25 18° WNW 22:24:25 18° WNW
BLOCK DM-SL R/B 4.3 22:43:53 10° W 22:51:50 35° W 22:51:50 35° W
